Details From DAUA - TOUAT CHEIKH SIDI MOHAMED BELKEBIR
To DAOO - ES SENIA
Flight Number -
Tags decoded
Created
Modified
Stats Distance 583 nm / 1,079 km
Max Altitude 0 ft / 0 m
Waypoints 7
Social Downloads 0
Likes 0
Share VATSIM

Download

Looking for another format? Having issues loading an existing format? Contact us
Advertisement - Login to hide

Notes

Requested: DAUA ADR TIO BAY TRB MOS DAOO

Route

DAUA ADR TIO BAY TRB MOS DAOO

ID Type Via Altitude Latitude Longitude Leg Dist Tot Dist Heading (true) Name
O DAUA APT - 0 ft / 0 m 27.83764˚ -0.18639˚ - 0 nm - TOUAT CHEIKH SIDI MOHAMED BELKEBIR
ADR NDB - 0 ft / 0 m 27.78528˚ -0.23028˚ 3 nm 3 nm 217° / 217° ADRAR NDB
TIO NDB - 0 ft / 0 m 29.24035˚ 0.25753˚ 91 nm 95 nm 16° / 17° TIMIMOUN NDB
BAY VOR - 0 ft / 0 m 33.70981˚ 1.07919˚ 271 nm 366 nm 9° / 9° EL BAYADH VOR-DME
TRB NDB - 0 ft / 0 m 35.34583˚ 1.50056˚ 100 nm 467 nm 12° / 12° TIARET NDB
MOS NDB - 0 ft / 0 m 35.90917˚ 0.13722˚ 74 nm 541 nm 297° / 297° MOSTAGANEM NDB
O DAOO APT - 0 ft / 0 m 35.62386˚ -0.62118˚ 40 nm 582 nm 245° / 245° ES SENIA

Altitude Profile

Advertisement - Login to hide

Weather


0- 5 10 15 20 25 30 35+ Temperature / ° C

Clouds and Precipitation
Forecast for 2017-12-16 18:00 UTC. Updated 2 hours ago

Ground ~20,000 ft ~40,000 ft Winds

DAUA

Details ICAO DAUA (AZR)
Name TOUAT CHEIKH SIDI MOHAMED BELKEBIR
Region Algeria
Timezone Africa/Algiers (UTC+1.0)
Stats Elevation 919 ft / 280 m (AMSL)
Location 27.837639° -0.186389°
Runways 1
Magnetic Variation 0.086° W

METAR

DAUA 161900Z 00000KT CAVOK 16/02 Q1018

Decode

TAF

TAF DAUA 161700Z 1618/1718 VRB02KT CAVOK PROB30 TEMPO 1703/1707 3000 BR BECMG 1706/1709 04010KT

Decode

Departure Runways

ID Width Length Bearing (true) Bearing (mag) Surface Threshold Offset Overrun Length
04 148 ft / 45 m 9,857 ft / 3,005 m 39.53° 39.62° Asphalt 0 ft / 0 m 0 ft / 0 m
22 148 ft / 45 m 9,857 ft / 3,005 m 219.54° 219.63° Asphalt 0 ft / 0 m 0 ft / 0 m

DAOO

Details ICAO DAOO (ORN)
Name ES SENIA
Region Algeria
Timezone Africa/Algiers (UTC+1.0)
Stats Elevation 295 ft / 90 m (AMSL)
Location 35.623858° -0.621183°
Runways 1
Magnetic Variation 0.152° E

METAR

DAOO 161900Z 04004KT 9999 FEW023 SCT026 12/09 Q1020

Decode

TAF

TAF DAOO 161700Z 1618/1718 06005KT 9999 FEW023 SCT026 BECMG 1619/1621 VRB02KT BECMG 1712/1715 06008KT 9999 FEW026

Decode

Destination Runways

ID Width Length Bearing (true) Bearing (mag) Surface Threshold Offset Overrun Length
07 148 ft / 45 m 10,006 ft / 3,050 m 67.06° 66.91° Asphalt 0 ft / 0 m 328 ft / 100 m
25 148 ft / 45 m 10,006 ft / 3,050 m 247.08° 246.93° Asphalt 196 ft / 60 m 0 ft / 0 m

Popular Alternatives